Other Public Products
Issued by NWS Grand Forks, ND

Home | Current Version | Previous Version | Text Only | Print | Product List | Glossary Off
Versions: 1 2 3 4 5 6 7 8 9 10 11 12 13 14 15 16 17 18 19 20 21 22 23 24 25 26 27 28 29 30 31 32 33 34 35 36 37 38 39 40 41 42 43 44 45 46 47 48 49 50

000
FPUS83 KFGF 250210
OPUFGF
PRAIRIE TO PINES WEATHER ROUNDUP
NATIONAL WEATHER SERVICE EASTERN NORTH DAKOTA/GRAND FORKS ND
900 PM CDT SUN SEP 24 2017

 **SATELLITE DATA USED TO AUGMENT SKY COVER AT AUTOMATED STATIONS**
 *****  WEATHER ACROSS EASTERN NORTH DAKOTA  *****

CITY           SKY/WX    TMP DP  RH WIND       PRES   REMARKS
GRAND FORKS    CLOUDY    52  50  93 NW14      29.98R
GRAND FORKS AF CLOUDY    50  48  93 N13       30.00R
GRAND CITY NWS NOT AVBL
BUXTON         NOT AVBL
DEVILS LAKE    CLOUDY    48  45  89 NW12      30.05R
FARGO          CLOUDY    53  51  93 NW13      29.98R
WAHPETON ARPT  CLOUDY    52  48  87 NW8       29.99R
$$

 *****  WEATHER ACROSS CENTRAL AND WESTERN NORTH DAKOTA  *****

CITY           SKY/WX    TMP DP  RH WIND       PRES   REMARKS
JAMESTOWN      CLOUDY    49  46  90 NW16      30.03R
BISMARCK       CLOUDY    50  45  83 N8        30.09R
MINOT          CLOUDY    49  46  90 NW8       30.09R
MINOT AFB      CLOUDY    48  45  91 NW8       30.07R
GARRISON         N/A     47  45  93 NW6       30.09R
WILLISTON      CLOUDY    46  44  93 CALM      30.12S
DICKINSON      CLOUDY    45  41  86 CALM      30.10R
HETTINGER      CLOUDY    45  41  86 NW7       30.13R
$$

 *****  OTHER OBSERVATIONS NORTHEAST NORTH DAKOTA  *****

CITY           SKY/WX    TMP DP  RH WIND       PRES   REMARKS
WALHALLA       FAIR     N/A N/A N/A NW10G20   30.00R HAZE
LANGDON        NOT AVBL
CAVALIER       CLOUDY    50  50 100 N12       29.98R FOG
GRAFTON        NOT AVBL
CANDO          CLOUDY    48  48 100 NW6       30.06S
FORT TOTTEN      N/A     49  46  90 NW7       29.95S
ROLLA          CLOUDY    46  46 100 NW10      30.05S
RUGBY          NOT AVBL
 ***** THE ABOVE OBSERVATIONS ARE NON NWS ARE NOT QUALITY
        CONTROLLED AND MAY MIS-REPORT RAIN FOR SNOW...
$$

 *****  OTHER OBSERVATIONS SOUTHEAST NORTH DAKOTA *****

CITY           SKY/WX    TMP DP  RH WIND       PRES   REMARKS
COOPERSTOWN    CLOUDY    50  48  93 NW14      30.03R
VALLEY CITY    NOT AVBL
OAKES          NOT AVBL
GWINNER        CLOUDY    52  48  87 NW13      30.01R
SHEYENNE NWR     N/A     53  52  95 NW7       29.95S
BUFFALO        NOT AVBL
WYNDMERE       NOT AVBL
 ***** THE ABOVE OBSERVATIONS ARE NON NWS ARE NOT QUALITY
       CONTROLLED AND MAY MIS-REPORT RAIN FOR SNOW...
$$

  *****  WEATHER ACROSS NORTHERN MINNESOTA  *****

CITY           SKY/WX    TMP DP  RH WIND       PRES   REMARKS
FLAG ISLAND    CLOUDY    54  52  94 NW14      29.84R
WARROAD        NOT AVBL
ROSEAU         CLOUDY    52  46  82 W9        29.91R HAZE
HALLOCK        CLOUDY    50  48  93 NW14G20   29.95R FOG
THF RVR FALLS  CLOUDY    50  48  93 NW13      29.95R
HALSTAD        NOT AVBL
FOSSTON        CLOUDY    50  48  93 W9        29.94R FOG
BAUDETTE       CLOUDY    54  54 100 NW8       29.86R
WASKISH        MOCLDY    55  54  94 W10       29.88R
CROOKSTON      CLOUDY    50  50 100 N13       29.97R
$$
  *****  WEATHER ACROSS CENTRAL AND WEST MINNESOTA  *****

CITY           SKY/WX    TMP DP  RH WIND       PRES   REMARKS
BEMIDJI        MOCLDY    55  53  96 W12       29.90R
PARK RAPIDS    CLOUDY    56  53  90 W13       29.91R
WADENA         CLOUDY    55  55 100 NW9G16    29.93R
DETROIT LAKES  CLOUDY    52  50  93 NW10      29.96R
MOORHEAD       CLOUDY    52  50  93 NW12      29.99R
FERGUS FALLS   CLOUDY    52  52 100 NW14      29.98R FOG
ELBOW LAKE     CLOUDY    53  52  98 NW10G20   29.98R
MORRIS MN      NOT AVBL
STAPLES        CLOUDY    57  57 100 W10       29.92R
WHEATON        CLOUDY    54  52  94 NW9       30.01R
$$
  *****  WEATHER ELSEWHERE ACROSS MINNESOTA  *****

CITY           SKY/WX    TMP DP  RH WIND       PRES   REMARKS
DULUTH         LGT RAIN  66  65  96 SW9       29.89S
INTRNTL FALLS  CLOUDY    62  60  93 W5        29.81S
ELY            RAIN      66  66 100 S6        29.85F
CLOQUET        RAIN      66  63  88 S7        29.89S
BRAINERD       MOCLDY    65  63  93 W5        29.88R
HIBBING        FAIR      65  65 100 CALM      29.85F
ALEXANDRIA     CLOUDY    56  54  93 NW15      29.96R
SAINT CLOUD    FAIR      67  66  97 W6        29.89R
MINNEAPOLIS    MOCLDY    75  66  73 NW5       29.89S
$$

  *****  WEATHER ACROSS SOUTH DAKOTA  *****

CITY           SKY/WX    TMP DP  RH WIND       PRES   REMARKS
SIOUX FALLS    CLOUDY    58  55  90 NW9       29.98S
BROOKINGS      CLOUDY    55  52  89 NW13      29.99R
WATERTOWN      CLOUDY    52  51  97 NW17      29.98R
HURON          CLOUDY    54  51  90 NW10      30.01R
SISSETON         N/A     54  51  90 NW10      29.99R
ABERDEEN       CLOUDY    52  49  89 N10       30.03R
MITCHELL       CLOUDY    56  52  86 N10       30.01R
PIERRE         CLOUDY    52  46  80 N12       30.07R
MOBRIDGE       CLOUDY    52  47  83 NW9       30.06R
RAPID CITY     CLOUDY    48  41  76 N10       30.10R
$$

  *****  SOME WEATHER IN NEARBY STATES *****

CITY           SKY/WX    TMP DP  RH WIND       PRES   REMARKS
GLASGOW MT     FAIR      47  37  68 S6        30.10S
GREAT FALLS MT FAIR      49  29  46 SE3       30.04S
CHEYENNE WY    LGT RAIN  42  41  96 NE7       30.04S VSB 1
SCOTTSBLUFF NE CLOUDY    49  45  86 NE9       30.05R
OMAHA NE       CLOUDY    70  64  81 N12       29.91R
DES MOINES IA  FAIR      80  63  55 SE7       29.91R
DAVENPORT IA   FAIR      74  64  71 SE6       29.99R
CHICAGO IL     FAIR      80  59  48 SE6       30.01S
EAU CLAIRE WI  FAIR      78  61  55 S9        29.90S
LA CROSSE WI   FAIR      82  64  54 S8        29.92S
$$

  *****  SOME NATIONAL WEATHER *****

CITY           SKY/WX    TMP DP  RH WIND       PRES   REMARKS
LA GUARDIA NY  FAIR      77  63  61 S6        30.05R
RALEIGH NC     MOCLDY    71  61  70 E6        30.03S
ATLANTA GA     FAIR      76  64  66 E8        30.02S
NEW ORLEANS LA FAIR      78  71  79 E7        29.92R
OKLAHOMA CITY  MOCLDY    77  63  61 S6        29.89R
ALBUQUERQUE NM FAIR      72  21  14 CALM      29.89R
SALT LAKE CITY MOCLDY    44  43  96 SE9       30.10F
LOS ANGELES CA FAIR      70  52  52 W12       29.84S
BOISE ID       FAIR      60  35  39 NW13      30.00S
SEATTLE WA     MOCLDY    66  49  54 W3        30.10S
$$

*** WEATHER ACROSS MANITOBA...SASKATCHEWAN AND ONTARIO ***
                ***ONTARIO***

CITY           SKY/WX    TMP DP  RH WIND       PRES   REMARKS
GERALDTON      PTCLDY    68  64  88 S7        29.85S
THUNDER BAY    PTCLDY    63  63 100 VRB2      29.83F
SIOUX LOOKOUT  DRIZZLE   63  63 100 VRB2      29.76S FOG
TORONTO        CLEAR     81  66  61 SE5       30.09S
BIG TROUT LK   LGT RAIN  45  45 100 NE9G17    29.94F
PICKLE LAKE    LGT RAIN  50  50 100 NE6       29.77F VSB 1/2
DRYDEN         LGT RAIN  61  59  94 W12       29.79R FOG
KENORA         LGT RAIN  52  52 100 NW10      29.85R VSB 1
$$
                *** MANITOBA***

CITY           SKY/WX    TMP DP  RH WIND       PRES   REMARKS
BRANDON        CLOUDY    46  45  93 NW7       30.06S
DAUPHIN        CLOUDY    48  46  93 N5        30.08R
ISLAND LAKE    NOT AVBL
PILOT MOUND      N/A     46  45  93 NW10        N/A
THE PAS        PTCLDY    45  39  81 VRB2      30.12R
THOMPSON       CLOUDY    41  34  75 NE5       30.15S
WINNIPEG       CLOUDY    48  48 100 N16G22    29.97R
LYNN LAKE      CLOUDY    39  37  93 S3        30.12S
CHURCHILL      CLOUDY    39  32  75 SE6       30.19F
GILLAM         CLOUDY    41  34  75 N13       30.16S
$$
                ***SASKATCHEWAN***

CITY           SKY/WX    TMP DP  RH WIND       PRES   REMARKS
ESTEVAN        CLOUDY    46  45  93 SE3       30.11R
KINDERSLEY     PTCLDY    46  32  57 SE5       30.03R
LLOYDMINSTER   MOCLDY    52  37  58 SE8       29.98F
PRINCE ALBERT  MOCLDY    45  39  81 E6        30.09S
REGINA         CLOUDY    50  34  53 E6        30.10S
YORKTON        CLOUDY    48  39  71 CALM      30.10R



USA.gov is the U.S. government's official web portal to all federal, state and local government web resources and services.